This is the latest recevied weather packets stored in our database for station/object WA6OOO. If no packets are shown the sender has not sent any weather packets the latest 10 day(s).
| Time | Temp. | Humidity | Pressure | Rain* | Wind** | Luminosity | Snow |
|---|---|---|---|---|---|---|---|
| 1777832858 | 16.11° C | 70% | 1017.6 hPa | 0 mm | - | 245 W/m² | - |
| 1777832557 | 16.11° C | 70% | 1017.8 hPa | 0 mm | - | 233 W/m² | - |
| 1777832253 | 16.11° C | 70% | 1017.6 hPa | 0 mm | - | 194 W/m² | - |
| 1777831950 | 16.67° C | 70% | 1017.6 hPa | 0 mm | - | 236 W/m² | - |
| 1777831646 | 16.67° C | 70% | 1017.8 hPa | 0 mm | - | 269 W/m² | - |
| 1777831345 | 16.67° C | 70% | 1017.7 hPa | 0 mm | - | 290 W/m² | - |
| 1777831041 | 16.67° C | 70% | 1017.8 hPa | 0 mm | - | 536 W/m² | - |
| 1777830739 | 16.67° C | 68% | 1017.6 hPa | 0 mm | - | 341 W/m² | - |
| 1777830435 | 16.67° C | 68% | 1017.7 hPa | 0 mm | - | 360 W/m² | - |
| 1777830133 | 16.67° C | 69% | 1017.7 hPa | 0 mm | - | 602 W/m² | - |
| 1777829828 | 17.22° C | 70% | 1017.6 hPa | 0 mm | - | 272 W/m² | - |
| 1777829524 | 16.67° C | 73% | 1017.6 hPa | 0 mm | - | 317 W/m² | - |
| 1777829221 | 16.11° C | 73% | 1017.7 hPa | 0 mm | - | 340 W/m² | - |
| 1777828918 | 16.11° C | 73% | 1017.7 hPa | 0 mm | - | 284 W/m² | - |
| 1777828615 | 16.67° C | 72% | 1017.6 hPa | 0 mm | - | 300 W/m² | - |
| 1777828312 | 16.11° C | 72% | 1017.7 hPa | 0 mm | - | 278 W/m² | - |
| 1777828009 | 16.67° C | 72% | 1017.6 hPa | 0 mm | - | 271 W/m² | - |
| 1777827706 | 16.11° C | 73% | 1017.7 hPa | 0 mm | - | 218 W/m² | - |
| 1777827403 | 16.11° C | 72% | 1017.6 hPa | 0 mm | - | 264 W/m² | - |
| 1777827099 | 16.11° C | 73% | 1017.8 hPa | 0 mm | - | 196 W/m² | - |
| 1777826796 | 16.11° C | 73% | 1017.6 hPa | 0 mm | - | 202 W/m² | - |
| 1777826493 | 16.11° C | 72% | 1017.4 hPa | 0 mm | - | 321 W/m² | - |
| 1777826190 | 15.56° C | 74% | 1017.3 hPa | 0 mm | - | 321 W/m² | - |
| 1777825887 | 15.56° C | 76% | 1017.4 hPa | 0 mm | - | 277 W/m² | - |
| 1777825584 | 15° C | 76% | 1017.4 hPa | 0 mm | - | 254 W/m² | - |
* Rain latest hour (hover to see other rain measurements)
** Current wind speed in m/s (hover to see current wind gust speed)